Regional Weather Roundup
Issued by NWS

Current Version | Previous Version | Text Only | Print | Product List | Glossary On
Versions: 1 2 3 4 5 6 7 8 9 10 11 12 13 14 15 16 17 18 19 20 21 22 23 24 25 26 27 28 29 30 31 32 33 34 35 36 37 38 39 40 41 42 43 44 45 46 47 48 49 50
000
ASUS43 KMKX 271800
RWRWI

WISCONSIN REGIONAL WEATHER ROUNDUP
NATIONAL WEATHER SERVICE MILWAUKEE/SULLIVAN WI
1200 PM CST SAT DEC 27 2014

NOTE: "FAIR" INDICATES FEW OR NO CLOUDS BELOW 12,000 FEET WITH NO
SIGNIFICANT WEATHER AND/OR OBSTRUCTIONS TO VISIBILITY.

WIZ001-002-006>008-014>016-023>028-271900-
NORTHWEST WISCONSIN

CITY           SKY/WX    TMP DP  RH WIND       PRES   REMARKS
SUPERIOR ARPT  SUNNY     23  13  65 NW9G16    30.02F WCI  13
ASHLAND        CLOUDY    26  21  81 NW8       29.98F WCI  18
6HR MIN TEMP:  25; 6HR MAX TEMP:  27; 6HR PCP:  0.09;

HAYWARD        CLOUDY    23  18  81 VRB6      29.98S WCI  16
6HR MIN TEMP:  23; 6HR MAX TEMP:  26; 6HR PCP:  0.05;

SIREN          SUNNY     22  14  69 NW9       30.04S WCI  12
CUMBERLAND     CLOUDY    23  18  80 NW13      30.00R WCI  11
RICE LAKE      CLOUDY    25  19  78 W9        30.01S WCI  16
6HR MIN TEMP:  24; 6HR MAX TEMP:  27;

CHETEK         CLOUDY    25  20  80 NW9       29.99S WCI  16
LADYSMITH      CLOUDY    28  23  84 NW12G18   29.96R WCI  17
6HR MIN TEMP:  28; 6HR MAX TEMP:  29;

EAU CLAIRE     NOT AVBL
MENOMONIE      CLOUDY    27  20  77 W13       30.02S WCI  16
6HR MIN TEMP:  26; 6HR MAX TEMP:  29;

NEW RICHMOND   CLOUDY    23  18  81 NW10      30.06R WCI  12
OSCEOLA        CLOUDY    23  20  87 NW8       30.09S WCI  14
$$

WIZ003>005-009-010-017-018-271900-
NORTH CENTRAL WISCONSIN

CITY           SKY/WX    TMP DP  RH WIND       PRES   REMARKS
MANITOWISH WTR LGT SNOW  29  27  93 N7        29.86S WCI  22
ARBOR VITAE    LGT SNOW  32  29  90 N9        29.85S WCI  24
WOODRUFF       LGT SNOW  32  29  90 N9        29.85S WCI  24
RHINELANDER    LGT SNOW  29  26  89 VRB7      29.83R FOG     WCI  22
6HR MIN TEMP:  28; 6HR MAX TEMP:  29; 6HR PCP:  0.22;

EAGLE RIVER    LGT SNOW  29  28  96 N9        29.82F VSB 1   WCI  20
LAND O LAKES   LGT SNOW  29  27  91 N8        29.84S WCI  21
PHILLIPS       CLOUDY    29  26  88 N10G16    29.88S WCI  19
6HR MIN TEMP:  28; 6HR MAX TEMP:  29; 6HR PCP:  0.05;

TOMAHAWK       LGT SNOW  30  27  90 N7        29.85R WCI  23
MEDFORD        FLURRIES  30  26  86 NW13      29.86R WCI  20
MERRILL        CLOUDY    31  28  90 N9        29.83S WCI  23
$$

WIZ029-030-035-036-043>047-271900-
CENTRAL WISCONSIN

CITY           SKY/WX    TMP DP  RH WIND       PRES   REMARKS
WAUSAU         CLOUDY    31  28  89 NW9       29.83R WCI  23
6HR MIN TEMP:  31; 6HR MAX TEMP:  32; 6HR PCP:  0.21;

MOSINEE        NOT AVBL
MARSHFIELD     CLOUDY    32  27  81 NW17      29.87R WCI  21
6HR MIN TEMP:  31; 6HR MAX TEMP:  33; 6HR PCP:  0.07;

STEVENS POINT  MIX PCPN  31  30  97 W8G17     29.84R WCI  23
WAUPACA        CLOUDY    36  35  96 SW14G24   29.83R WCI  27
6HR MIN TEMP:  35; 6HR MAX TEMP:  37; 6HR PCP:  0.05;

WAUTOMA        NOT AVBL
WISC RAPIDS    CLOUDY    32  28  85 W14       29.89R WCI  22
6HR MIN TEMP:  32; 6HR MAX TEMP:  33; 6HR PCP:  0.13;

CAMP DOUGLAS   CLOUDY    32  32 100 W17       29.93R WCI  21
$$

WIZ011>013-019>022-031-037>040-048>050-271900-
NORTHEAST WISCONSIN

CITY           SKY/WX    TMP DP  RH WIND       PRES   REMARKS
ANTIGO         LGT SNOW  30  29  94 N10       29.79S WCI  21
SHAWANO        LGT SNOW  34  33  96 W3        29.82R
6HR MIN TEMP:  34; 6HR MAX TEMP:  34; 6HR PCP:  0.18;

OCONTO         CLOUDY    33  33 100 CALM      29.78F
STURGEON BAY   CLOUDY    34  30  86 NW7       29.78F WCI  28
6HR MIN TEMP:  34; 6HR MAX TEMP:  41;

GREEN BAY      CLOUDY    36  36 100 W13       29.80F FOG     WCI  27
6HR MIN TEMP:  34; 6HR MAX TEMP:  36; 6HR PCP:  0.19;

MANITOWOC      CLOUDY    39  39 100 W22       29.80S WCI  29
APPLETON       CLOUDY    36  36 100 W15G24    29.82R WCI  26
CLINTONVILLE   RAIN      34  32  93 W5        29.81R WCI  30
OSHKOSH        CLOUDY    38  34  85 W12G24    29.83R WCI  30
6HR MIN TEMP:  35; 6HR MAX TEMP:  44; 6HR PCP:  0.05;

$$

WIZ032>034-041-042-053>061-271900-
SOUTHWEST WISCONSIN

CITY           SKY/WX    TMP DP  RH WIND       PRES   REMARKS
LA CROSSE      CLOUDY    31  26  82 NW15      30.00S WCI  20
6HR MIN TEMP:  31; 6HR MAX TEMP:  33; 6HR PCP: TRACE;

SPARTA         CLOUDY    30  28  91 W10G18    29.97R WCI  21
VIROQUA        CLOUDY    29  29 100 NW13G24   29.96S WCI  19
BOSCOBEL       CLOUDY    33  27  78 W13G22    30.00R WCI  24
6HR MIN TEMP:  33; 6HR MAX TEMP:  38;

PRAIRIE DU CHI CLOUDY    32  27  81 W16       30.01F WCI  21
PLATTEVILLE    CLOUDY    33  30  89 W22G30    30.01R WCI  20
$$

WIZ056-057-062-063-064-067-068-271900-
SOUTH CENTRAL WISCONSIN

CITY           SKY/WX    TMP DP  RH WIND       PRES   REMARKS
REEDSBURG      CLOUDY    33  31  92 W17       29.92R WCI  22
BARABOO/DELLS  CLOUDY    33  31  92 W15G23    29.91R WCI  23
LONE ROCK      NOT AVBL
MINERAL POINT  CLOUDY    34  32  93 W18G24    29.95S WCI  23
MADISON        CLOUDY    36  31  82 VRB7G18   29.91F WCI  30
6HR MIN TEMP:  36; 6HR MAX TEMP:  46; 6HR PCP:  0.03;

MIDDLETON      CLOUDY    37  32  81 W17G24    29.92R WCI  28
WATERTOWN      CLOUDY    36  33  88 SW14G25   29.91R WCI  27
MONROE         CLOUDY    34  32  93 W24G31    29.95F WCI  21
JANESVILLE     CLOUDY    37  30  75 W23G29    29.95S WCI  26
$$

WIZ051-052-058>065-066-070>072-271900-
SOUTHEAST WISCONSIN

CITY           SKY/WX    TMP DP  RH WIND       PRES   REMARKS
MILWAUKEE      CLOUDY    42  36  79 W22G39    29.88R
6HR MIN TEMP:  42; 6HR MAX TEMP:  50; 6HR PCP:  0.01;

WAUKESHA       CLOUDY    36  32  87 W21G29    29.91R WCI  24
MILWAUKEE/TIMM NOT AVBL
RACINE         CLOUDY    43  35  73 W16G28    29.91R
6HR MIN TEMP:  43; 6HR MAX TEMP:  50; 6HR PCP: TRACE;

BURLINGTON     CLOUDY    38  33  84 W18G26    29.92R WCI  28
KENOSHA        CLOUDY    41  35  79 W26G32    29.91R
6HR MIN TEMP:  41; 6HR MAX TEMP:  49; 6HR PCP: TRACE;

FOND DU LAC    CLOUDY    39  34  82 SW17G29   29.85R WCI  30
6HR MIN TEMP:  37; 6HR MAX TEMP:  46; 6HR PCP:  0.04;

SHEBOYGAN      CLOUDY    43  38  82 W23G35    29.82R
6HR MIN TEMP:  38; 6HR MAX TEMP:  47; 6HR PCP:  0.03;

WEST BEND      CLOUDY    41  36  81 SW16G24   29.86R
JUNEAU         CLOUDY    37  33  86 SW22G28   29.90R WCI  26
$$

LSZ147-162-271900-
LAKE SUPERIOR

STATION/POSITION TIME  TEMP    WIND        PRES    WAVE
                       AIR SEA DIR/SP/G            HT/PER
                 (UTC) (F)     (DEG/KT/KT) (MB)    (FT/S)
DEVILS ISLAND    1700   24     330/ 13/ 16 1016.7F
PORT WING        1700   24     280/  9/ 12 1016.6
SAXON HARBOR     1700   28     320/ 14/ 17 1014.9F
$$

LMZ867-665-643>646-271900-
LAKE MICHIGAN

STATION/POSITION TIME  TEMP    WIND        PRES    WAVE
                       AIR SEA DIR/SP/G            HT/PER
                 (UTC) (F)     (DEG/KT/KT) (MB)    (FT/S)
CHAMBERS ISLAND  1700   33     350/ 12/ 16 1008.8S
NORTHPORT PIER   1720   33     360/ 13/ 20 1007.5F
SISTER BAY       1658           20/  7/  9   N/A
ALGOMA LAKESHORE 1615          250/ 14/ 19   N/A
KEWAUNEE LAKESHO 1700   42     270/ 13/ 18 1007.6F
SHEBOYGAN LAKESH 1700   48 39  230/ 15/ 18 1009.8F
PORT WASHINGTON  1700   49     240/ 15/ 27 1010.8F
MILWAUKEE LAKESH 1700   49     240/ 26/ 32   N/A
KENOSHA   LAKESH 1700   49     240/ 20/ 29 1012.5F
$$

TC  - TEMPERATURE IN CELSIUS
VSB - VISIBILITY IN STATUTE MILES
WCI - WIND CHILL INDEX
HX  - HEAT INDEX



USA.gov is the U.S. government's official web portal to all federal, state and local government web resources and services.